Location: ??????
(55.6500°N, 37.8000°E)
Time: 18:11:39
(UTC+00:00)

SWAS - Pass Details

Date: 14 April 2024
Orbit: 560 x 572 km, 69.9° (Epoch: 26 May)

Event Time Altitude Azimuth Distance (km) Brightness Sun altitude
Rises 00:36:17 0° 323° (NW) 2,779 8.0 -14.1°
Reaches altitude 10° 00:38:30 10° 322° (NW) 1,880 7.1 -13.9°
Maximum altitude 00:42:42 79° 236° (SW) 587 4.3 -13.5°
Drops below altitude 10° 00:46:54 10° 150° (SSE) 1,875 6.9 -13.0°
Sets 00:49:07 0° 149° (SSE) 2,771 7.8 -12.8°
